Location: Unspecified
(42.3650°N, 71.1030°W)
Time: 02:11:55
(UTC+00:00)

Transit 2A Rocket - Visible Passes

Search period start: 13 June 2024 00:00
Search period end: 23 June 2024 00:00
Orbit: 583 x 910 km, 66.7° (Epoch: 12 June)

Date Brightness Start Highest point End Pass type
(mag) Time Alt. Az. Time Alt. Az. Time Alt. Az.
13 Jun 5.3 02:37:54 35° SSE 02:39:11 42° ESE 02:44:13 10° NE visible
13 Jun 6.7 04:17:38 11° WSW 04:21:50 30° NW 04:26:41 10° NNE visible
14 Jun 6.1 01:53:52 20° SE 01:55:26 23° ESE 01:59:34 10° NE visible
14 Jun 5.8 03:33:34 15° SW 03:37:31 49° NW 03:42:52 10° NNE visible
14 Jun 7.9 05:19:39 10° NW 05:21:31 12° NNW 05:23:27 10° N visible
15 Jun 6.7 01:09:49 10° SE 01:11:50 12° E 01:13:54 10° ENE visible
15 Jun 5.0 02:49:14 15° SSW 02:53:21 84° WNW 02:58:53 10° NNE visible
15 Jun 7.6 04:33:28 10° WNW 04:36:50 17° NW 04:40:24 10° N visible
16 Jun 5.0 02:04:34 10° SSW 02:09:22 55° ESE 02:14:42 10° NE visible
16 Jun 7.1 03:48:03 10° W 03:52:17 25° NW 03:56:51 10° N visible
17 Jun 5.7 01:21:15 10° S 01:25:33 31° ESE 01:30:14 10° NE visible
17 Jun 6.4 03:03:09 10° WSW 03:07:53 39° NW 03:13:06 10° NNE visible
18 Jun 5.4 02:18:41 10° SW 02:23:40 65° NW 02:29:11 10° NNE visible
18 Jun 7.9 04:04:32 10° WNW 04:07:24 14° NW 04:10:22 10° N visible
19 Jun 4.9 01:34:38 10° SSW 01:39:35 73° ESE 01:45:06 10° NE visible
19 Jun 7.6 03:18:51 10° W 03:22:47 21° NW 03:26:58 10° N visible
20 Jun 5.4 00:51:03 10° S 00:55:42 40° ESE 01:00:46 10° NE visible
20 Jun 6.9 02:33:43 10° WSW 02:38:18 32° NW 02:43:18 10° NNE visible
20 Jun 8.7 07:52:16 10° N 07:54:19 12° NNE 07:56:24 10° NE visible
21 Jun 6.0 01:49:03 10° SW 01:53:59 51° NW 01:59:26 10° NNE visible
21 Jun 8.2 03:35:48 10° NW 03:37:58 12° NNW 03:40:12 10° N visible
22 Jun 5.1 01:04:47 10° SSW 01:09:50 87° WNW 01:15:25 10° NNE visible
22 Jun 8.0 02:49:44 10° W 02:53:16 18° NW 02:57:01 10° N visible
22 Jun 8.3 08:05:17 10° N 08:09:35 20° NE 08:13:53 10° E visible
